Content
SEND FEEDBACK

Daily
Averages
Monthly
Summary
France

LE HAVRE, FRANCE


Home > Europe > France
Elevation: 338 feet     Latitude: 49 31N     Longitude: 000 04E

WEATHER
 
SELECT A DAY
Number of Records: 187,658;   Date Range: 3/4/97 - 12/19/14
 
SHARE

PRINT THIS DATA

[ ← Previous Day ]
WEATHER ALMANAC - FEBRUARY 16, 2013
[ Next Day → ]
[ °C ]   °F
Weather ElementAverageHighLow
Temperature38.4 °F46.4 °F (2:00 pm)30.2 °F (4:30 am)
Dewpoint33.6 °F41 °F (12:00 pm)28.4 °F (4:30 am)
Humidity84.4 %100 % (12:30 am)57 % (3:30 pm)
Barometer30.21 in30.24 in (1:30 am)30.18 in (5:00 pm)
Wind Speed4.4 mph9.2 mph (12:00 pm)
Weather ElementAverage
Visibility3.2 mi
Wind DirectionE (92.8 °)

Weather ElementTotal
Precipitation---
Heating Degree Days26.7 (Base 65)
Averaged from 47 records on February 16, 2013
WEATHER CONDITIONS BREAKOUT
WIND DIRECTION BREAKOUT
WEATHER BY HOUR - FEBRUARY 16, 2013
[ °C ]   °F
Local TimeTemperatureDewpointHumidityBarometerVisibilityWind DirectionWind SpeedGust SpeedPrecipitationEventsConditions
12:30 AM39.2 °F39.2 °F100 %30.21 in0.2 miSSW (200°)3.5 mphFogPatches of Fog
1:00 AM39.2 °F39.2 °F100 %30.21 in0.1 miSSW (200°)3.5 mphFogPatches of Fog
1:30 AM33.8 °F33.8 °F100 %30.24 in0.1 miSouth (190°)2.3 mphFogFog
2:00 AM33.8 °F33.8 °F100 %30.21 in0.1 miSouth (180°)2.3 mphFogFog
2:30 AM33.8 °F32.0 °F93 %30.21 in0.1 miSouth (190°)2.3 mphFogFog
3:00 AM33.8 °F32.0 °F93 %30.21 in0.1 miCalmFogFog
3:30 AM32.0 °F32.0 °F100 %30.21 in0.1 miSSW (210°)2.3 mphFogLight Freezing Fog
4:00 AM32.0 °F30.2 °F93 %30.21 in0.1 miESE (120°)2.3 mphFogLight Freezing Fog
4:30 AM30.2 °F28.4 °F93 %30.21 in0.2 miCalmFogLight Freezing Fog
5:00 AM30.2 °F30.2 °F100 %30.21 in0.0 miCalmFogLight Freezing Fog
5:30 AM30.2 °F30.2 °F100 %30.21 in0.1 miEast (90°)2.3 mphFogLight Freezing Fog
6:00 AM32.0 °F30.2 °F93 %30.21 in0.0 miCalmFogLight Freezing Fog
6:30 AM32.0 °F30.2 °F93 %30.21 inEast (80°)1.2 mphFogLight Freezing Fog
7:00 AM30.2 °F30.2 °F100 %30.21 in0.0 miCalmFogLight Freezing Fog
7:30 AM32.0 °F32.0 °F100 %30.21 in0.1 miCalmFogLight Freezing Fog
8:00 AM32.0 °F32.0 °F100 %30.21 in0.1 miCalmFogFog
8:30 AM32.0 °F32.0 °F100 %30.24 in0.1 miEast (90°)3.5 mphFogFog
9:00 AM32.0 °F32.0 °F100 %30.24 in0.1 miEast (100°)4.6 mphFogFog
9:30 AM33.8 °F33.8 °F100 %30.24 in0.0 miEast (100°)4.6 mphFogFog
10:00 AM35.6 °F33.8 °F93 %30.24 in0.0 miEast (90°)5.8 mphFogFog
10:30 AM37.4 °F37.4 °F100 %30.24 in0.0 miESE (110°)4.6 mphFogFog
11:00 AM39.2 °F37.4 °F93 %30.24 in0.1 miESE (110°)5.8 mphFogFog
11:30 AM39.2 °F39.2 °F100 %30.24 in0.1 miESE (110°)5.8 mphFogFog
12:00 PM41.0 °F41.0 °F100 %30.24 in5.0 miSE (130°)9.2 mph
12:30 PM42.8 °F41.0 °F93 %30.24 in5.0 miESE (120°)6.9 mphScattered Clouds
1:00 PM42.8 °F39.2 °F87 %30.24 in5.0 miESE (120°)8.1 mph
1:30 PM42.8 °F35.6 °F76 %30.24 in6.2 miESE (120°)9.2 mph
2:00 PM46.4 °F35.6 °F66 %30.24 in6.2 miSE (140°)9.2 mph
2:30 PM46.4 °F33.8 °F62 %30.21 in6.2 miESE (120°)8.1 mph
3:00 PM46.4 °F33.8 °F62 %30.21 in6.2 miESE (110°)8.1 mph
3:30 PM46.4 °F32.0 °F57 %30.21 in6.2 miEast (100°)5.8 mphPartly Cloudy
4:00 PM46.4 °F32.0 °F57 %30.21 in6.2 miVariable3.5 mphPartly Cloudy
4:30 PM46.4 °F33.8 °F62 %30.21 in6.2 miVariable3.5 mphPartly Cloudy
5:00 PM46.4 °F35.6 °F66 %30.18 in6.2 miENE (70°)6.9 mphMostly Cloudy
5:30 PM46.4 °F35.6 °F66 %30.18 in6.2 miENE (70°)8.1 mphScattered Clouds
6:00 PM44.6 °F35.6 °F71 %30.18 in6.2 miEast (80°)5.8 mphPartly Cloudy
6:30 PM44.6 °F33.8 °F66 %30.18 in6.2 miEast (100°)5.8 mph
7:00 PM42.8 °F33.8 °F70 %30.18 in6.2 miEast (90°)3.5 mph
7:30 PM42.8 °F33.8 °F70 %30.18 in6.2 miEast (90°)4.6 mph
8:00 PM41.0 °F32.0 °F70 %30.18 in6.2 miEast (90°)5.8 mph
8:30 PM41.0 °F32.0 °F70 %30.18 in6.2 miEast (100°)4.6 mph
9:00 PM39.2 °F32.0 °F75 %30.18 in6.2 miEast (90°)4.6 mph
9:30 PM39.2 °F32.0 °F75 %30.18 in6.2 miEast (90°)5.8 mph
10:00 PM39.2 °F32.0 °F75 %30.21 in6.2 miEast (90°)4.6 mph
10:30 PM37.4 °F30.2 °F75 %30.21 in6.2 miEast (90°)5.8 mph
11:00 PM37.4 °F30.2 °F75 %30.21 in6.2 miEast (90°)5.8 mphScattered Clouds
11:30 PM37.4 °F30.2 °F75 %30.18 in6.2 miEast (90°)5.8 mphPartly Cloudy
Hourly data recorded from LFOH, located miles away from Le Havre, France







STORIES FROM OUR PARTNERS